Time,TemperatureF,DewpointF,PressureIn,WindDirection,WindDirectionDegrees,WindSpeedMPH,WindSpeedGustMPH,Humidity,HourlyPrecipIn,Conditions,Clouds,dailyrainin,SoftwareType,DateUTC
2013-07-31 00:01:00,84.3,64.0,28.59,SE,135,4.0,7.0,50,0.00,,,0.00,Rainwise IP-100,2013-07-31 05:01:00,
2013-07-31 00:06:00,84.2,64.0,28.59,SSW,202,2.0,6.0,50,0.00,,,0.00,Rainwise IP-100,2013-07-31 05:06:00,
2013-07-31 00:11:00,84.2,64.0,28.60,SSE,157,4.0,0.0,50,0.00,,,0.00,Rainwise IP-100,2013-07-31 05:11:00,
2013-07-31 00:16:00,84.2,64.0,28.60,SSE,157,4.0,7.0,51,0.00,,,0.00,Rainwise IP-100,2013-07-31 05:16:00,
2013-07-31 00:21:00,84.3,64.0,28.60,South,180,5.0,8.0,51,0.00,,,0.00,Rainwise IP-100,2013-07-31 05:21:00,
2013-07-31 00:26:00,84.3,64.0,28.60,SSW,202,5.0,0.0,51,0.00,,,0.00,Rainwise IP-100,2013-07-31 05:26:00,
2013-07-31 00:31:00,84.3,64.0,28.60,ESE,112,5.0,8.0,51,0.00,,,0.00,Rainwise IP-100,2013-07-31 05:31:00,
2013-07-31 00:36:00,84.2,64.0,28.60,SSE,157,4.0,7.0,51,0.00,,,0.00,Rainwise IP-100,2013-07-31 05:36:00,
2013-07-31 00:41:00,84.1,64.0,28.59,SSE,157,5.0,8.0,52,0.00,,,0.00,Rainwise IP-100,2013-07-31 05:41:00,
2013-07-31 00:46:00,84.1,64.0,28.59,SSE,157,6.0,6.0,52,0.00,,,0.00,Rainwise IP-100,2013-07-31 05:46:00,
2013-07-31 00:51:00,84.1,64.0,28.60,SSE,157,4.0,9.0,52,0.00,,,0.00,Rainwise IP-100,2013-07-31 05:51:00,
2013-07-31 00:56:00,84.0,64.0,28.59,SSE,157,4.0,9.0,52,0.00,,,0.00,Rainwise IP-100,2013-07-31 05:56:00,
2013-07-31 01:01:00,83.9,65.0,28.60,South,180,7.0,7.0,53,0.00,,,0.00,Rainwise IP-100,2013-07-31 06:01:00,
2013-07-31 01:06:00,83.8,65.0,28.60,SSE,157,5.0,9.0,53,0.00,,,0.00,Rainwise IP-100,2013-07-31 06:06:00,
2013-07-31 01:11:00,83.7,65.0,28.60,SSE,157,4.0,8.0,54,0.00,,,0.00,Rainwise IP-100,2013-07-31 06:11:00,
2013-07-31 01:16:00,83.6,65.0,28.60,South,180,5.0,9.0,54,0.00,,,0.00,Rainwise IP-100,2013-07-31 06:16:00,
2013-07-31 01:21:00,83.5,65.0,28.60,SSE,157,4.0,8.0,54,0.00,,,0.00,Rainwise IP-100,2013-07-31 06:21:00,
2013-07-31 01:26:00,83.4,66.0,28.60,SSE,157,5.0,8.0,55,0.00,,,0.00,Rainwise IP-100,2013-07-31 06:26:00,
2013-07-31 01:31:00,83.3,65.0,28.59,SSE,157,2.0,0.0,55,0.00,,,0.00,Rainwise IP-100,2013-07-31 06:31:00,
2013-07-31 01:36:00,83.2,65.0,28.59,SE,135,8.0,0.0,55,0.00,,,0.00,Rainwise IP-100,2013-07-31 06:36:00,
2013-07-31 01:41:00,83.1,66.0,28.60,SSE,157,7.0,0.0,56,0.00,,,0.00,Rainwise IP-100,2013-07-31 06:41:00,
2013-07-31 01:46:00,83.0,66.0,28.60,SSE,157,6.0,6.0,56,0.00,,,0.00,Rainwise IP-100,2013-07-31 06:46:00,
2013-07-31 01:51:00,83.0,66.0,28.60,SSE,157,5.0,5.0,56,0.00,,,0.00,Rainwise IP-100,2013-07-31 06:51:00,
2013-07-31 01:56:00,82.8,65.0,28.60,SSE,157,5.0,0.0,56,0.00,,,0.00,Rainwise IP-100,2013-07-31 06:56:00,
2013-07-31 02:01:00,82.7,66.0,28.60,South,180,5.0,7.0,57,0.00,,,0.00,Rainwise IP-100,2013-07-31 07:01:00,
2013-07-31 02:06:00,82.5,66.0,28.60,SSE,157,6.0,7.0,57,0.00,,,0.00,Rainwise IP-100,2013-07-31 07:06:00,
2013-07-31 02:11:00,82.4,66.0,28.60,South,180,7.0,9.0,58,0.00,,,0.00,Rainwise IP-100,2013-07-31 07:11:00,
2013-07-31 02:16:00,82.3,66.0,28.60,SE,135,4.0,7.0,58,0.00,,,0.00,Rainwise IP-100,2013-07-31 07:16:00,
2013-07-31 02:21:00,82.2,66.0,28.60,South,180,6.0,8.0,58,0.00,,,0.00,Rainwise IP-100,2013-07-31 07:21:00,
2013-07-31 02:26:00,82.1,66.0,28.60,SSE,157,4.0,6.0,58,0.00,,,0.00,Rainwise IP-100,2013-07-31 07:26:00,
2013-07-31 02:31:00,82.0,66.0,28.61,South,180,3.0,6.0,59,0.00,,,0.00,Rainwise IP-100,2013-07-31 07:31:00,
2013-07-31 02:36:00,81.9,66.0,28.61,South,180,6.0,7.0,59,0.00,,,0.00,Rainwise IP-100,2013-07-31 07:36:00,
2013-07-31 02:41:00,81.8,66.0,28.61,SSE,157,7.0,7.0,59,0.00,,,0.00,Rainwise IP-100,2013-07-31 07:41:00,
2013-07-31 02:46:00,81.9,66.0,28.61,SSE,157,6.0,8.0,59,0.00,,,0.00,Rainwise IP-100,2013-07-31 07:46:00,
2013-07-31 02:51:00,81.9,66.0,28.60,SSE,157,4.0,7.0,59,0.00,,,0.00,Rainwise IP-100,2013-07-31 07:51:00,
2013-07-31 02:56:00,81.9,66.0,28.61,SSE,157,3.0,7.0,59,0.00,,,0.00,Rainwise IP-100,2013-07-31 07:56:00,
2013-07-31 03:01:00,81.9,66.0,28.60,SSE,157,3.0,9.0,59,0.00,,,0.00,Rainwise IP-100,2013-07-31 08:01:00,
2013-07-31 03:06:00,81.8,66.0,28.60,SSE,157,5.0,7.0,59,0.00,,,0.00,Rainwise IP-100,2013-07-31 08:06:00,
2013-07-31 03:11:00,81.8,66.0,28.61,South,180,5.0,8.0,60,0.00,,,0.00,Rainwise IP-100,2013-07-31 08:11:00,
2013-07-31 03:16:00,81.8,66.0,28.61,SSE,157,4.0,8.0,60,0.00,,,0.00,Rainwise IP-100,2013-07-31 08:16:00,
2013-07-31 03:21:00,81.8,66.0,28.61,SSE,157,3.0,7.0,60,0.00,,,0.00,Rainwise IP-100,2013-07-31 08:21:00,
2013-07-31 03:26:00,81.8,66.0,28.61,SSE,157,6.0,8.0,60,0.00,,,0.00,Rainwise IP-100,2013-07-31 08:26:00,
2013-07-31 03:31:00,81.7,66.0,28.60,SSE,157,4.0,0.0,60,0.00,,,0.00,Rainwise IP-100,2013-07-31 08:31:00,
2013-07-31 03:36:00,81.6,66.0,28.61,SSE,157,4.0,7.0,60,0.00,,,0.00,Rainwise IP-100,2013-07-31 08:36:00,
2013-07-31 03:41:00,81.6,66.0,28.61,SSE,157,4.0,8.0,60,0.00,,,0.00,Rainwise IP-100,2013-07-31 08:41:00,
2013-07-31 03:46:00,81.5,66.0,28.60,SSE,157,5.0,7.0,61,0.00,,,0.00,Rainwise IP-100,2013-07-31 08:46:00,
2013-07-31 03:51:00,81.5,66.0,28.60,South,180,6.0,9.0,61,0.00,,,0.00,Rainwise IP-100,2013-07-31 08:51:00,
2013-07-31 03:56:00,81.4,66.0,28.60,SW,225,2.0,7.0,61,0.00,,,0.00,Rainwise IP-100,2013-07-31 08:56:00,
2013-07-31 04:01:00,81.2,66.0,28.60,SSE,157,8.0,8.0,61,0.00,,,0.00,Rainwise IP-100,2013-07-31 09:01:00,
2013-07-31 04:06:00,81.0,66.0,28.60,South,180,4.0,8.0,61,0.00,,,0.00,Rainwise IP-100,2013-07-31 09:06:00,
2013-07-31 04:11:00,80.9,66.0,28.60,South,180,3.0,7.0,62,0.00,,,0.00,Rainwise IP-100,2013-07-31 09:11:00,
2013-07-31 04:16:00,80.7,66.0,28.60,SSE,157,5.0,7.0,62,0.00,,,0.00,Rainwise IP-100,2013-07-31 09:16:00,
2013-07-31 04:21:00,80.6,66.0,28.60,South,180,6.0,6.0,62,0.00,,,0.00,Rainwise IP-100,2013-07-31 09:21:00,
2013-07-31 04:26:00,80.5,66.0,28.60,SSE,157,5.0,7.0,63,0.00,,,0.00,Rainwise IP-100,2013-07-31 09:26:00,
2013-07-31 04:31:00,80.4,66.0,28.59,SSE,157,3.0,7.0,63,0.00,,,0.00,Rainwise IP-100,2013-07-31 09:31:00,
2013-07-31 04:36:00,80.2,66.0,28.60,South,180,3.0,6.0,63,0.00,,,0.00,Rainwise IP-100,2013-07-31 09:36:00,
2013-07-31 04:41:00,80.1,66.0,28.60,SSE,157,3.0,5.0,64,0.00,,,0.00,Rainwise IP-100,2013-07-31 09:41:00,
2013-07-31 04:46:00,79.9,66.0,28.60,SSE,157,3.0,5.0,64,0.00,,,0.00,Rainwise IP-100,2013-07-31 09:46:00,
2013-07-31 04:51:00,79.7,66.0,28.59,SSW,202,3.0,5.0,64,0.00,,,0.00,Rainwise IP-100,2013-07-31 09:51:00,
2013-07-31 04:56:00,79.6,66.0,28.60,SSW,202,4.0,7.0,65,0.00,,,0.00,Rainwise IP-100,2013-07-31 09:56:00,
2013-07-31 05:01:00,79.4,66.0,28.60,SSE,157,6.0,6.0,65,0.00,,,0.00,Rainwise IP-100,2013-07-31 10:01:00,
2013-07-31 05:06:00,79.3,66.0,28.60,SSE,157,5.0,7.0,65,0.00,,,0.00,Rainwise IP-100,2013-07-31 10:06:00,
2013-07-31 05:11:00,79.2,67.0,28.60,SSW,202,3.0,5.0,66,0.00,,,0.00,Rainwise IP-100,2013-07-31 10:11:00,
2013-07-31 05:16:00,79.2,67.0,28.60,SSW,202,2.0,7.0,66,0.00,,,0.00,Rainwise IP-100,2013-07-31 10:16:00,
2013-07-31 05:21:00,79.0,66.0,28.60,SSE,157,4.0,6.0,66,0.00,,,0.00,Rainwise IP-100,2013-07-31 10:21:00,
2013-07-31 05:26:00,78.9,66.0,28.60,SSE,157,4.0,4.0,66,0.00,,,0.00,Rainwise IP-100,2013-07-31 10:26:00,
2013-07-31 05:31:00,78.8,66.0,28.60,SSE,157,2.0,5.0,66,0.00,,,0.00,Rainwise IP-100,2013-07-31 10:31:00,
2013-07-31 05:36:00,78.8,66.0,28.60,South,180,5.0,6.0,67,0.00,,,0.00,Rainwise IP-100,2013-07-31 10:36:00,
2013-07-31 05:41:00,78.7,66.0,28.60,SSE,157,2.0,6.0,67,0.00,,,0.00,Rainwise IP-100,2013-07-31 10:41:00,
2013-07-31 05:46:00,78.5,66.0,28.61,South,180,2.0,5.0,67,0.00,,,0.00,Rainwise IP-100,2013-07-31 10:46:00,
2013-07-31 05:51:00,78.4,66.0,28.61,South,180,4.0,5.0,67,0.00,,,0.00,Rainwise IP-100,2013-07-31 10:51:00,
2013-07-31 05:56:00,78.3,66.0,28.61,SSE,157,2.0,4.0,67,0.00,,,0.00,Rainwise IP-100,2013-07-31 10:56:00,
2013-07-31 06:01:00,78.3,66.0,28.61,South,180,2.0,5.0,67,0.00,,,0.00,Rainwise IP-100,2013-07-31 11:01:00,
2013-07-31 06:06:00,78.4,66.0,28.62,South,180,3.0,4.0,67,0.00,,,0.00,Rainwise IP-100,2013-07-31 11:06:00,
2013-07-31 06:11:00,78.3,66.0,28.62,South,180,4.0,6.0,67,0.00,,,0.00,Rainwise IP-100,2013-07-31 11:11:00,
2013-07-31 06:16:00,78.4,66.0,28.62,SSE,157,2.0,7.0,66,0.00,,,0.00,Rainwise IP-100,2013-07-31 11:16:00,
2013-07-31 06:21:00,78.5,66.0,28.62,SSW,202,3.0,5.0,66,0.00,,,0.00,Rainwise IP-100,2013-07-31 11:21:00,
2013-07-31 06:26:00,78.4,66.0,28.63,SSW,202,0.0,4.0,66,0.00,,,0.00,Rainwise IP-100,2013-07-31 11:26:00,
2013-07-31 06:31:00,78.3,66.0,28.63,SSW,202,2.0,3.0,66,0.00,,,0.00,Rainwise IP-100,2013-07-31 11:31:00,
2013-07-31 06:36:00,78.3,66.0,28.63,South,180,4.0,6.0,65,0.00,,,0.00,Rainwise IP-100,2013-07-31 11:36:00,
2013-07-31 06:41:00,78.4,66.0,28.64,South,180,5.0,7.0,65,0.00,,,0.00,Rainwise IP-100,2013-07-31 11:41:00,
2013-07-31 06:46:00,78.5,65.0,28.64,SSW,202,2.0,6.0,64,0.00,,,0.00,Rainwise IP-100,2013-07-31 11:46:00,
2013-07-31 06:51:00,78.6,65.0,28.64,SSW,202,3.0,6.0,64,0.00,,,0.00,Rainwise IP-100,2013-07-31 11:51:00,
2013-07-31 06:56:00,78.6,65.0,28.64,South,180,2.0,6.0,64,0.00,,,0.00,Rainwise IP-100,2013-07-31 11:56:00,
2013-07-31 07:01:00,78.5,65.0,28.64,South,180,2.0,5.0,63,0.00,,,0.00,Rainwise IP-100,2013-07-31 12:01:00,
2013-07-31 07:06:00,78.5,65.0,28.65,SSE,157,3.0,6.0,63,0.00,,,0.00,Rainwise IP-100,2013-07-31 12:06:00,
2013-07-31 07:11:00,78.6,65.0,28.65,SSE,157,4.0,5.0,63,0.00,,,0.00,Rainwise IP-100,2013-07-31 12:11:00,
2013-07-31 07:16:00,78.6,64.0,28.64,SSE,157,3.0,8.0,62,0.00,,,0.00,Rainwise IP-100,2013-07-31 12:16:00,
2013-07-31 07:21:00,78.6,64.0,28.65,SSE,157,3.0,6.0,62,0.00,,,0.00,Rainwise IP-100,2013-07-31 12:21:00,
2013-07-31 07:26:00,78.6,64.0,28.65,SSE,157,3.0,5.0,62,0.00,,,0.00,Rainwise IP-100,2013-07-31 12:26:00,
2013-07-31 07:31:00,78.6,64.0,28.65,South,180,3.0,6.0,62,0.00,,,0.00,Rainwise IP-100,2013-07-31 12:31:00,
2013-07-31 07:36:00,78.6,64.0,28.65,SSE,157,4.0,6.0,62,0.00,,,0.00,Rainwise IP-100,2013-07-31 12:36:00,
2013-07-31 07:41:00,78.6,64.0,28.65,South,180,3.0,5.0,62,0.00,,,0.00,Rainwise IP-100,2013-07-31 12:41:00,
2013-07-31 07:46:00,78.6,64.0,28.66,SSW,202,2.0,4.0,62,0.00,,,0.00,Rainwise IP-100,2013-07-31 12:46:00,
2013-07-31 07:51:00,78.7,64.0,28.65,SSW,202,3.0,3.0,62,0.00,,,0.00,Rainwise IP-100,2013-07-31 12:51:00,
2013-07-31 07:56:00,78.8,64.0,28.66,SSE,157,2.0,5.0,62,0.00,,,0.00,Rainwise IP-100,2013-07-31 12:56:00,
2013-07-31 08:01:00,78.8,64.0,28.66,SSW,202,2.0,3.0,62,0.00,,,0.00,Rainwise IP-100,2013-07-31 13:01:00,
2013-07-31 08:06:00,78.8,64.0,28.66,SSW,202,1.0,4.0,62,0.00,,,0.00,Rainwise IP-100,2013-07-31 13:06:00,
2013-07-31 08:11:00,78.9,65.0,28.66,SW,225,1.0,4.0,62,0.00,,,0.00,Rainwise IP-100,2013-07-31 13:11:00,
2013-07-31 08:16:00,79.0,65.0,28.66,SSW,202,2.0,3.0,62,0.00,,,0.00,Rainwise IP-100,2013-07-31 13:16:00,
2013-07-31 08:21:00,79.1,65.0,28.66,South,180,0.0,3.0,62,0.00,,,0.00,Rainwise IP-100,2013-07-31 13:21:00,
2013-07-31 08:26:00,79.1,65.0,28.66,SSW,202,1.0,3.0,62,0.00,,,0.00,Rainwise IP-100,2013-07-31 13:26:00,
2013-07-31 08:31:00,79.2,65.0,28.67,SSE,157,4.0,4.0,62,0.00,,,0.00,Rainwise IP-100,2013-07-31 13:31:00,
2013-07-31 08:36:00,79.2,66.0,28.66,SSE,157,2.0,4.0,63,0.00,,,0.00,Rainwise IP-100,2013-07-31 13:36:00,
2013-07-31 08:41:00,79.2,66.0,28.67,SSW,202,2.0,4.0,63,0.00,,,0.00,Rainwise IP-100,2013-07-31 13:41:00,
2013-07-31 08:46:00,79.4,65.0,28.67,South,180,3.0,4.0,62,0.00,,,0.00,Rainwise IP-100,2013-07-31 13:46:00,
2013-07-31 08:51:00,79.5,65.0,28.67,SSE,157,1.0,3.0,62,0.00,,,0.00,Rainwise IP-100,2013-07-31 13:51:00,
2013-07-31 08:56:00,79.6,65.0,28.67,SSE,157,3.0,4.0,62,0.00,,,0.00,Rainwise IP-100,2013-07-31 13:56:00,
2013-07-31 09:01:00,79.6,65.0,28.67,SSW,202,0.0,3.0,62,0.00,,,0.00,Rainwise IP-100,2013-07-31 14:01:00,
2013-07-31 09:06:00,79.8,65.0,28.68,South,180,4.0,5.0,62,0.00,,,0.00,Rainwise IP-100,2013-07-31 14:06:00,
2013-07-31 09:11:00,80.0,65.0,28.67,South,180,4.0,5.0,60,0.00,,,0.00,Rainwise IP-100,2013-07-31 14:11:00,
2013-07-31 09:16:00,80.3,65.0,28.67,SSE,157,5.0,5.0,60,0.00,,,0.00,Rainwise IP-100,2013-07-31 14:16:00,
2013-07-31 09:21:00,80.7,65.0,28.67,SSE,157,4.0,6.0,59,0.00,,,0.00,Rainwise IP-100,2013-07-31 14:21:00,
2013-07-31 09:26:00,81.4,65.0,28.67,SSE,157,5.0,7.0,58,0.00,,,0.00,Rainwise IP-100,2013-07-31 14:26:00,
2013-07-31 09:31:00,82.0,65.0,28.66,SSW,202,3.0,7.0,57,0.00,,,0.00,Rainwise IP-100,2013-07-31 14:31:00,
2013-07-31 09:36:00,82.7,65.0,28.67,SW,225,4.0,8.0,56,0.00,,,0.00,Rainwise IP-100,2013-07-31 14:36:00,
2013-07-31 09:41:00,82.9,65.0,28.67,SSW,202,2.0,8.0,55,0.00,,,0.00,Rainwise IP-100,2013-07-31 14:41:00,
2013-07-31 09:46:00,82.8,64.0,28.67,SSW,202,3.0,8.0,54,0.00,,,0.00,Rainwise IP-100,2013-07-31 14:46:00,
2013-07-31 09:51:00,83.1,65.0,28.67,SW,225,4.0,7.0,54,0.00,,,0.00,Rainwise IP-100,2013-07-31 14:51:00,
2013-07-31 09:56:00,83.7,65.0,28.67,SSW,202,3.0,7.0,53,0.00,,,0.00,Rainwise IP-100,2013-07-31 14:56:00,
2013-07-31 10:01:00,84.1,65.0,28.67,SW,225,2.0,8.0,53,0.00,,,0.00,Rainwise IP-100,2013-07-31 15:01:00,
2013-07-31 10:06:00,84.5,65.0,28.67,SSE,157,7.0,7.0,52,0.00,,,0.00,Rainwise IP-100,2013-07-31 15:06:00,
2013-07-31 10:11:00,84.8,64.0,28.67,SSW,202,3.0,7.0,51,0.00,,,0.00,Rainwise IP-100,2013-07-31 15:11:00,
2013-07-31 10:16:00,84.6,64.0,28.67,SW,225,5.0,0.0,51,0.00,,,0.00,Rainwise IP-100,2013-07-31 15:16:00,
2013-07-31 10:21:00,84.4,64.0,28.67,WSW,247,7.0,9.0,51,0.00,,,0.00,Rainwise IP-100,2013-07-31 15:21:00,
2013-07-31 10:26:00,84.3,64.0,28.66,SW,225,5.0,0.0,51,0.00,,,0.00,Rainwise IP-100,2013-07-31 15:26:00,
2013-07-31 10:31:00,84.2,64.0,28.67,South,180,4.0,7.0,51,0.00,,,0.00,Rainwise IP-100,2013-07-31 15:31:00,
2013-07-31 10:36:00,84.4,64.0,28.67,WSW,247,4.0,7.0,51,0.00,,,0.00,Rainwise IP-100,2013-07-31 15:36:00,
2013-07-31 10:41:00,84.6,64.0,28.67,WSW,247,4.0,7.0,51,0.00,,,0.00,Rainwise IP-100,2013-07-31 15:41:00,
2013-07-31 10:46:00,84.6,64.0,28.67,WSW,247,4.0,8.0,50,0.00,,,0.00,Rainwise IP-100,2013-07-31 15:46:00,
2013-07-31 10:51:00,84.6,64.0,28.67,SW,225,2.0,7.0,50,0.00,,,0.00,Rainwise IP-100,2013-07-31 15:51:00,
2013-07-31 10:56:00,85.0,64.0,28.67,SW,225,5.0,9.0,50,0.00,,,0.00,Rainwise IP-100,2013-07-31 15:56:00,
2013-07-31 11:01:00,85.2,64.0,28.67,SSW,202,7.0,7.0,49,0.00,,,0.00,Rainwise IP-100,2013-07-31 16:01:00,
2013-07-31 11:06:00,85.6,64.0,28.66,SW,225,2.0,9.0,49,0.00,,,0.00,Rainwise IP-100,2013-07-31 16:06:00,
2013-07-31 11:11:00,86.4,63.0,28.67,WSW,247,8.0,9.0,46,0.00,,,0.00,Rainwise IP-100,2013-07-31 16:11:00,
2013-07-31 11:16:00,87.2,63.0,28.67,SSW,202,5.0,8.0,45,0.00,,,0.00,Rainwise IP-100,2013-07-31 16:16:00,
2013-07-31 11:21:00,87.6,62.0,28.67,WSW,247,6.0,9.0,43,0.00,,,0.00,Rainwise IP-100,2013-07-31 16:21:00,
2013-07-31 11:26:00,88.0,61.0,28.67,South,180,4.0,9.0,41,0.00,,,0.00,Rainwise IP-100,2013-07-31 16:26:00,
2013-07-31 11:31:00,88.9,61.0,28.67,WSW,247,5.0,8.0,40,0.00,,,0.00,Rainwise IP-100,2013-07-31 16:31:00,
2013-07-31 11:36:00,89.5,61.0,28.67,SW,225,4.0,8.0,39,0.00,,,0.00,Rainwise IP-100,2013-07-31 16:36:00,
2013-07-31 11:41:00,89.6,60.0,28.67,SSE,157,2.0,7.0,38,0.00,,,0.00,Rainwise IP-100,2013-07-31 16:41:00,
2013-07-31 11:46:00,90.1,60.0,28.66,WNW,292,4.0,0.0,37,0.00,,,0.00,Rainwise IP-100,2013-07-31 16:46:00,
2013-07-31 11:51:00,91.0,61.0,28.66,SW,225,4.0,5.0,37,0.00,,,0.00,Rainwise IP-100,2013-07-31 16:51:00,
2013-07-31 11:56:00,91.9,61.0,28.67,SW,225,4.0,7.0,36,0.00,,,0.00,Rainwise IP-100,2013-07-31 16:56:00,
2013-07-31 12:01:00,92.3,60.0,28.66,WSW,247,0.0,7.0,35,0.00,,,0.00,Rainwise IP-100,2013-07-31 17:01:00,
2013-07-31 12:06:00,92.5,60.0,28.66,WSW,247,3.0,8.0,34,0.00,,,0.00,Rainwise IP-100,2013-07-31 17:06:00,
2013-07-31 12:11:00,92.6,60.0,28.66,WNW,292,1.0,4.0,34,0.00,,,0.00,Rainwise IP-100,2013-07-31 17:11:00,
2013-07-31 12:16:00,93.0,59.0,28.66,ESE,112,9.0,9.0,33,0.00,,,0.00,Rainwise IP-100,2013-07-31 17:16:00,
2013-07-31 12:21:00,93.0,59.0,28.66,West,270,2.0,2.0,33,0.00,,,0.00,Rainwise IP-100,2013-07-31 17:21:00,
2013-07-31 12:26:00,92.7,61.0,28.66,WNW,292,3.0,4.0,35,0.00,,,0.00,Rainwise IP-100,2013-07-31 17:26:00,
2013-07-31 12:31:00,93.1,61.0,28.66,WSW,247,2.0,8.0,35,0.00,,,0.00,Rainwise IP-100,2013-07-31 17:31:00,
2013-07-31 12:36:00,93.5,62.0,28.66,WSW,247,4.0,7.0,35,0.00,,,0.00,Rainwise IP-100,2013-07-31 17:36:00,
2013-07-31 12:41:00,93.7,61.0,28.66,WNW,292,5.0,8.0,34,0.00,,,0.00,Rainwise IP-100,2013-07-31 17:41:00,
2013-07-31 12:46:00,93.7,61.0,28.66,WNW,292,1.0,8.0,34,0.00,,,0.00,Rainwise IP-100,2013-07-31 17:46:00,
2013-07-31 12:51:00,94.1,61.0,28.66,North,360,5.0,6.0,34,0.00,,,0.00,Rainwise IP-100,2013-07-31 17:51:00,
2013-07-31 12:56:00,94.8,62.0,28.65,WSW,247,7.0,7.0,34,0.00,,,0.00,Rainwise IP-100,2013-07-31 17:56:00,
2013-07-31 13:01:00,95.0,61.0,28.65,NW,315,2.0,8.0,33,0.00,,,0.00,Rainwise IP-100,2013-07-31 18:01:00,
2013-07-31 13:06:00,95.1,61.0,28.64,West,270,4.0,9.0,33,0.00,,,0.00,Rainwise IP-100,2013-07-31 18:06:00,
2013-07-31 13:11:00,95.1,61.0,28.65,SW,225,5.0,8.0,33,0.00,,,0.00,Rainwise IP-100,2013-07-31 18:11:00,
2013-07-31 13:16:00,94.8,61.0,28.65,WNW,292,3.0,7.0,33,0.00,,,0.00,Rainwise IP-100,2013-07-31 18:16:00,
2013-07-31 13:21:00,95.0,61.0,28.64,West,270,8.0,8.0,33,0.00,,,0.00,Rainwise IP-100,2013-07-31 18:21:00,
2013-07-31 13:26:00,95.5,62.0,28.64,WSW,247,3.0,8.0,33,0.00,,,0.00,Rainwise IP-100,2013-07-31 18:26:00,
2013-07-31 13:31:00,95.5,62.0,28.64,SSW,202,2.0,8.0,33,0.00,,,0.00,Rainwise IP-100,2013-07-31 18:31:00,
2013-07-31 13:36:00,95.5,62.0,28.64,SE,135,2.0,5.0,33,0.00,,,0.00,Rainwise IP-100,2013-07-31 18:36:00,
2013-07-31 13:41:00,95.5,62.0,28.64,WSW,247,8.0,8.0,33,0.00,,,0.00,Rainwise IP-100,2013-07-31 18:41:00,
2013-07-31 13:46:00,95.2,61.0,28.63,NW,315,3.0,9.0,33,0.00,,,0.00,Rainwise IP-100,2013-07-31 18:46:00,
2013-07-31 13:51:00,95.5,62.0,28.63,SSW,202,4.0,5.0,33,0.00,,,0.00,Rainwise IP-100,2013-07-31 18:51:00,
2013-07-31 13:56:00,95.8,62.0,28.63,SW,225,4.0,8.0,33,0.00,,,0.00,Rainwise IP-100,2013-07-31 18:56:00,
2013-07-31 14:01:00,95.8,62.0,28.63,West,270,6.0,8.0,33,0.00,,,0.00,Rainwise IP-100,2013-07-31 19:01:00,
2013-07-31 14:06:00,95.6,62.0,28.63,SW,225,3.0,9.0,33,0.00,,,0.00,Rainwise IP-100,2013-07-31 19:06:00,
2013-07-31 14:11:00,95.3,62.0,28.62,SSW,202,2.0,7.0,34,0.00,,,0.00,Rainwise IP-100,2013-07-31 19:11:00,
2013-07-31 14:16:00,95.6,62.0,28.62,West,270,0.0,5.0,34,0.00,,,0.00,Rainwise IP-100,2013-07-31 19:16:00,
2013-07-31 14:21:00,95.9,63.0,28.62,WNW,292,3.0,6.0,34,0.00,,,0.00,Rainwise IP-100,2013-07-31 19:21:00,
2013-07-31 14:26:00,96.1,62.0,28.62,WSW,247,5.0,0.0,33,0.00,,,0.00,Rainwise IP-100,2013-07-31 19:26:00,
2013-07-31 14:31:00,96.0,62.0,28.61,ESE,112,0.0,8.0,33,0.00,,,0.00,Rainwise IP-100,2013-07-31 19:31:00,
2013-07-31 14:36:00,96.1,62.0,28.62,WNW,292,2.0,8.0,33,0.00,,,0.00,Rainwise IP-100,2013-07-31 19:36:00,
2013-07-31 14:41:00,96.8,63.0,28.62,SW,225,2.0,6.0,33,0.00,,,0.00,Rainwise IP-100,2013-07-31 19:41:00,
2013-07-31 14:46:00,97.4,63.0,28.61,West,270,3.0,3.0,33,0.00,,,0.00,Rainwise IP-100,2013-07-31 19:46:00,
2013-07-31 14:51:00,97.6,63.0,28.61,WNW,292,0.0,5.0,32,0.00,,,0.00,Rainwise IP-100,2013-07-31 19:51:00,
2013-07-31 14:56:00,97.2,62.0,28.61,South,180,5.0,5.0,32,0.00,,,0.00,Rainwise IP-100,2013-07-31 19:56:00,
2013-07-31 15:01:00,97.3,62.0,28.61,SSW,202,2.0,6.0,32,0.00,,,0.00,Rainwise IP-100,2013-07-31 20:01:00,
2013-07-31 15:06:00,97.9,63.0,28.61,NNE,22,0.0,7.0,32,0.00,,,0.00,Rainwise IP-100,2013-07-31 20:06:00,
2013-07-31 15:11:00,98.1,63.0,28.61,WNW,292,3.0,9.0,32,0.00,,,0.00,Rainwise IP-100,2013-07-31 20:11:00,
2013-07-31 15:16:00,98.1,63.0,28.60,NNE,22,3.0,6.0,32,0.00,,,0.00,Rainwise IP-100,2013-07-31 20:16:00,
2013-07-31 15:21:00,98.2,63.0,28.60,NNW,337,4.0,6.0,32,0.00,,,0.00,Rainwise IP-100,2013-07-31 20:21:00,
2013-07-31 15:26:00,98.3,62.0,28.60,West,270,2.0,7.0,31,0.00,,,0.00,Rainwise IP-100,2013-07-31 20:26:00,
2013-07-31 15:31:00,98.5,62.0,28.60,WNW,292,4.0,5.0,31,0.00,,,0.00,Rainwise IP-100,2013-07-31 20:31:00,
2013-07-31 15:36:00,98.9,63.0,28.60,North,360,5.0,8.0,31,0.00,,,0.00,Rainwise IP-100,2013-07-31 20:36:00,
2013-07-31 15:41:00,99.4,62.0,28.60,East,90,2.0,7.0,30,0.00,,,0.00,Rainwise IP-100,2013-07-31 20:41:00,
2013-07-31 15:46:00,99.0,62.0,28.59,NNW,337,2.0,4.0,30,0.00,,,0.00,Rainwise IP-100,2013-07-31 20:46:00,
2013-07-31 15:51:00,99.2,62.0,28.59,ESE,112,3.0,7.0,30,0.00,,,0.00,Rainwise IP-100,2013-07-31 20:51:00,
2013-07-31 15:56:00,98.8,62.0,28.59,SSE,157,4.0,7.0,30,0.00,,,0.00,Rainwise IP-100,2013-07-31 20:56:00,
2013-07-31 16:01:00,98.5,62.0,28.58,WSW,247,5.0,6.0,30,0.00,,,0.00,Rainwise IP-100,2013-07-31 21:01:00,
2013-07-31 16:06:00,99.1,63.0,28.58,SSW,202,2.0,6.0,31,0.00,,,0.00,Rainwise IP-100,2013-07-31 21:06:00,
2013-07-31 16:11:00,99.3,62.0,28.58,WNW,292,4.0,4.0,30,0.00,,,0.00,Rainwise IP-100,2013-07-31 21:11:00,
2013-07-31 16:16:00,100.0,63.0,28.58,WSW,247,6.0,6.0,30,0.00,,,0.00,Rainwise IP-100,2013-07-31 21:16:00,
2013-07-31 16:21:00,100.3,64.0,28.57,WSW,247,5.0,9.0,31,0.00,,,0.00,Rainwise IP-100,2013-07-31 21:21:00,
2013-07-31 16:26:00,100.3,64.0,28.57,NW,315,3.0,8.0,31,0.00,,,0.00,Rainwise IP-100,2013-07-31 21:26:00,
2013-07-31 16:31:00,100.4,63.0,28.57,WNW,292,0.0,7.0,30,0.00,,,0.00,Rainwise IP-100,2013-07-31 21:31:00,
2013-07-31 16:36:00,100.3,63.0,28.57,NNW,337,4.0,8.0,30,0.00,,,0.00,Rainwise IP-100,2013-07-31 21:36:00,
2013-07-31 16:41:00,100.3,63.0,28.57,SSW,202,3.0,5.0,30,0.00,,,0.00,Rainwise IP-100,2013-07-31 21:41:00,
2013-07-31 16:46:00,100.4,63.0,28.57,WSW,247,0.0,3.0,30,0.00,,,0.00,Rainwise IP-100,2013-07-31 21:46:00,
2013-07-31 16:51:00,100.7,63.0,28.57,ENE,67,3.0,4.0,30,0.00,,,0.00,Rainwise IP-100,2013-07-31 21:51:00,
2013-07-31 16:56:00,100.4,63.0,28.57,ENE,67,0.0,7.0,30,0.00,,,0.00,Rainwise IP-100,2013-07-31 21:56:00,
2013-07-31 17:01:00,99.9,63.0,28.56,ENE,67,7.0,7.0,30,0.00,,,0.00,Rainwise IP-100,2013-07-31 22:01:00,
2013-07-31 17:06:00,98.8,62.0,28.56,NE,45,0.0,8.0,30,0.00,,,0.00,Rainwise IP-100,2013-07-31 22:06:00,
2013-07-31 17:11:00,98.2,61.0,28.56,NNE,22,6.0,6.0,30,0.00,,,0.00,Rainwise IP-100,2013-07-31 22:11:00,
2013-07-31 17:16:00,99.0,62.0,28.56,East,90,3.0,7.0,30,0.00,,,0.00,Rainwise IP-100,2013-07-31 22:16:00,
2013-07-31 17:21:00,99.1,62.0,28.56,East,90,6.0,7.0,30,0.00,,,0.00,Rainwise IP-100,2013-07-31 22:21:00,
2013-07-31 17:26:00,98.6,62.0,28.56,East,90,6.0,9.0,30,0.00,,,0.00,Rainwise IP-100,2013-07-31 22:26:00,
2013-07-31 17:31:00,98.3,62.0,28.55,ENE,67,4.0,7.0,31,0.00,,,0.00,Rainwise IP-100,2013-07-31 22:31:00,
2013-07-31 17:36:00,98.0,62.0,28.55,NE,45,1.0,7.0,31,0.00,,,0.00,Rainwise IP-100,2013-07-31 22:36:00,
2013-07-31 17:41:00,98.5,62.0,28.55,NNE,22,4.0,7.0,30,0.00,,,0.00,Rainwise IP-100,2013-07-31 22:41:00,
2013-07-31 17:46:00,99.0,62.0,28.54,ENE,67,5.0,6.0,30,0.00,,,0.00,Rainwise IP-100,2013-07-31 22:46:00,
2013-07-31 17:51:00,98.8,62.0,28.54,ESE,112,4.0,6.0,30,0.00,,,0.00,Rainwise IP-100,2013-07-31 22:51:00,
2013-07-31 17:56:00,98.2,61.0,28.53,East,90,0.0,4.0,30,0.00,,,0.00,Rainwise IP-100,2013-07-31 22:56:00,
2013-07-31 18:01:00,99.0,61.0,28.53,SSW,202,0.0,3.0,29,0.00,,,0.00,Rainwise IP-100,2013-07-31 23:01:00,
2013-07-31 18:06:00,99.6,61.0,28.53,East,90,5.0,7.0,29,0.00,,,0.00,Rainwise IP-100,2013-07-31 23:06:00,
2013-07-31 18:11:00,98.8,61.0,28.53,NNE,22,0.0,6.0,29,0.00,,,0.00,Rainwise IP-100,2013-07-31 23:11:00,
2013-07-31 18:16:00,98.4,61.0,28.53,ESE,112,0.0,4.0,30,0.00,,,0.00,Rainwise IP-100,2013-07-31 23:16:00,
2013-07-31 18:21:00,98.2,61.0,28.53,NE,45,0.0,5.0,30,0.00,,,0.00,Rainwise IP-100,2013-07-31 23:21:00,
2013-07-31 18:26:00,98.7,62.0,28.53,ENE,67,3.0,7.0,30,0.00,,,0.00,Rainwise IP-100,2013-07-31 23:26:00,
2013-07-31 18:31:00,98.7,62.0,28.53,East,90,3.0,4.0,30,0.00,,,0.00,Rainwise IP-100,2013-07-31 23:31:00,
2013-07-31 18:36:00,98.1,61.0,28.53,ENE,67,1.0,4.0,30,0.00,,,0.00,Rainwise IP-100,2013-07-31 23:36:00,
2013-07-31 18:41:00,98.1,61.0,28.53,SSE,157,0.0,4.0,30,0.00,,,0.00,Rainwise IP-100,2013-07-31 23:41:00,
2013-07-31 18:46:00,98.3,61.0,28.53,ESE,112,0.0,3.0,30,0.00,,,0.00,Rainwise IP-100,2013-07-31 23:46:00,
2013-07-31 18:51:00,98.8,62.0,28.53,ENE,67,0.0,2.0,30,0.00,,,0.00,Rainwise IP-100,2013-07-31 23:51:00,
2013-07-31 18:53:00,98.8,62.0,28.53,ENE,67,3.0,3.0,30,0.00,,,0.00,Rainwise IP-100,2013-07-31 23:53:00,
2013-07-31 18:58:00,98.5,62.0,28.53,NE,45,1.0,4.0,30,0.00,,,0.00,Rainwise IP-100,2013-07-31 23:58:00,
2013-07-31 19:03:00,97.7,61.0,28.52,ENE,67,2.0,4.0,30,0.00,,,0.00,Rainwise IP-100,2013-08-01 00:03:00,
2013-07-31 19:06:00,97.7,62.0,28.53,NNE,22,2.0,4.0,31,0.00,,,0.00,Rainwise IP-100,2013-08-01 00:06:00,
2013-07-31 19:11:00,97.8,62.0,28.52,NNE,22,0.0,4.0,31,0.00,,,0.00,Rainwise IP-100,2013-08-01 00:11:00,
2013-07-31 19:16:00,98.4,62.0,28.53,SSE,157,0.0,2.0,31,0.00,,,0.00,Rainwise IP-100,2013-08-01 00:16:00,
2013-07-31 19:21:00,98.4,63.0,28.53,SSE,157,0.0,3.0,32,0.00,,,0.00,Rainwise IP-100,2013-08-01 00:21:00,
2013-07-31 19:26:00,98.3,62.0,28.53,SSE,157,0.0,1.0,31,0.00,,,0.00,Rainwise IP-100,2013-08-01 00:26:00,
2013-07-31 19:31:00,97.7,62.0,28.53,SSE,157,0.0,1.0,31,0.00,,,0.00,Rainwise IP-100,2013-08-01 00:31:00,
2013-07-31 19:36:00,97.1,62.0,28.53,East,90,2.0,2.0,32,0.00,,,0.00,Rainwise IP-100,2013-08-01 00:36:00,
2013-07-31 19:41:00,96.4,62.0,28.53,East,90,0.0,2.0,33,0.00,,,0.00,Rainwise IP-100,2013-08-01 00:41:00,
2013-07-31 19:46:00,95.7,63.0,28.54,ENE,67,0.0,2.0,34,0.00,,,0.00,Rainwise IP-100,2013-08-01 00:46:00,
2013-07-31 19:51:00,95.4,63.0,28.54,ENE,67,1.0,3.0,35,0.00,,,0.00,Rainwise IP-100,2013-08-01 00:51:00,
2013-07-31 19:56:00,95.0,63.0,28.54,ENE,67,0.0,1.0,35,0.00,,,0.00,Rainwise IP-100,2013-08-01 00:56:00,
2013-07-31 20:01:00,94.6,63.0,28.54,ENE,67,0.0,2.0,36,0.00,,,0.00,Rainwise IP-100,2013-08-01 01:01:00,
2013-07-31 20:06:00,94.2,63.0,28.54,ENE,67,0.0,1.0,36,0.00,,,0.00,Rainwise IP-100,2013-08-01 01:06:00,
2013-07-31 20:11:00,94.0,64.0,28.54,ENE,67,0.0,1.0,37,0.00,,,0.00,Rainwise IP-100,2013-08-01 01:11:00,
2013-07-31 20:16:00,93.8,63.0,28.54,ENE,67,0.0,2.0,37,0.00,,,0.00,Rainwise IP-100,2013-08-01 01:16:00,
2013-07-31 20:21:00,93.3,64.0,28.54,ENE,67,0.0,2.0,38,0.00,,,0.00,Rainwise IP-100,2013-08-01 01:21:00,
2013-07-31 20:26:00,92.8,64.0,28.54,ENE,67,0.0,1.0,39,0.00,,,0.00,Rainwise IP-100,2013-08-01 01:26:00,
2013-07-31 20:31:00,92.4,64.0,28.54,ENE,67,0.0,1.0,39,0.00,,,0.00,Rainwise IP-100,2013-08-01 01:31:00,
2013-07-31 20:36:00,91.8,64.0,28.54,ENE,67,1.0,2.0,40,0.00,,,0.00,Rainwise IP-100,2013-08-01 01:36:00,
2013-07-31 20:41:00,91.2,64.0,28.55,NNE,22,2.0,2.0,41,0.00,,,0.00,Rainwise IP-100,2013-08-01 01:41:00,
2013-07-31 20:46:00,90.9,64.0,28.55,NNE,22,0.0,2.0,41,0.00,,,0.00,Rainwise IP-100,2013-08-01 01:46:00,
2013-07-31 20:51:00,90.5,64.0,28.55,NNE,22,0.0,0.0,42,0.00,,,0.00,Rainwise IP-100,2013-08-01 01:51:00,
2013-07-31 20:56:00,90.1,64.0,28.55,NNE,22,0.0,1.0,43,0.00,,,0.00,Rainwise IP-100,2013-08-01 01:56:00,
2013-07-31 21:01:00,89.6,64.0,28.55,NNE,22,0.0,0.0,43,0.00,,,0.00,Rainwise IP-100,2013-08-01 02:01:00,
2013-07-31 21:06:00,89.0,64.0,28.55,NNE,22,0.0,1.0,44,0.00,,,0.00,Rainwise IP-100,2013-08-01 02:06:00,
2013-07-31 21:11:00,88.7,65.0,28.55,NNE,22,1.0,1.0,45,0.00,,,0.00,Rainwise IP-100,2013-08-01 02:11:00,
2013-07-31 21:16:00,88.7,65.0,28.55,NE,45,2.0,2.0,45,0.00,,,0.00,Rainwise IP-100,2013-08-01 02:16:00,
2013-07-31 21:21:00,88.7,65.0,28.55,NE,45,2.0,2.0,45,0.00,,,0.00,Rainwise IP-100,2013-08-01 02:21:00,
2013-07-31 21:26:00,88.7,65.0,28.56,ENE,67,2.0,3.0,45,0.00,,,0.00,Rainwise IP-100,2013-08-01 02:26:00,
2013-07-31 21:31:00,88.6,64.0,28.56,NE,45,2.0,4.0,45,0.00,,,0.00,Rainwise IP-100,2013-08-01 02:31:00,
2013-07-31 21:36:00,88.6,64.0,28.56,ENE,67,0.0,5.0,45,0.00,,,0.00,Rainwise IP-100,2013-08-01 02:36:00,
2013-07-31 21:41:00,88.5,64.0,28.56,ENE,67,1.0,2.0,45,0.00,,,0.00,Rainwise IP-100,2013-08-01 02:41:00,
2013-07-31 21:46:00,88.4,64.0,28.56,ENE,67,1.0,3.0,45,0.00,,,0.00,Rainwise IP-100,2013-08-01 02:46:00,
2013-07-31 21:51:00,88.2,64.0,28.56,ENE,67,0.0,1.0,45,0.00,,,0.00,Rainwise IP-100,2013-08-01 02:51:00,
2013-07-31 21:56:00,87.8,64.0,28.57,ENE,67,1.0,2.0,46,0.00,,,0.00,Rainwise IP-100,2013-08-01 02:56:00,
2013-07-31 22:01:00,87.4,64.0,28.57,ENE,67,0.0,1.0,46,0.00,,,0.00,Rainwise IP-100,2013-08-01 03:01:00,
2013-07-31 22:06:00,87.0,63.0,28.57,ENE,67,0.0,0.0,46,0.00,,,0.00,Rainwise IP-100,2013-08-01 03:06:00,
2013-07-31 22:11:00,86.6,64.0,28.57,ENE,67,1.0,1.0,47,0.00,,,0.00,Rainwise IP-100,2013-08-01 03:11:00,
2013-07-31 22:16:00,86.3,64.0,28.57,ENE,67,0.0,1.0,48,0.00,,,0.00,Rainwise IP-100,2013-08-01 03:16:00,
2013-07-31 22:21:00,86.0,64.0,28.58,ENE,67,0.0,1.0,48,0.00,,,0.00,Rainwise IP-100,2013-08-01 03:21:00,
2013-07-31 22:26:00,85.7,64.0,28.57,ENE,67,2.0,2.0,49,0.00,,,0.00,Rainwise IP-100,2013-08-01 03:26:00,
2013-07-31 22:31:00,85.6,64.0,28.57,ENE,67,0.0,1.0,49,0.00,,,0.00,Rainwise IP-100,2013-08-01 03:31:00,
2013-07-31 22:36:00,85.6,64.0,28.58,ENE,67,0.0,1.0,49,0.00,,,0.00,Rainwise IP-100,2013-08-01 03:36:00,
2013-07-31 22:41:00,85.3,64.0,28.58,ENE,67,0.0,0.0,50,0.00,,,0.00,Rainwise IP-100,2013-08-01 03:41:00,
2013-07-31 22:46:00,84.7,64.0,28.57,ENE,67,0.0,0.0,51,0.00,,,0.00,Rainwise IP-100,2013-08-01 03:46:00,
2013-07-31 22:51:00,83.9,64.0,28.58,ENE,67,0.0,0.0,52,0.00,,,0.00,Rainwise IP-100,2013-08-01 03:51:00,
2013-07-31 22:56:00,83.3,65.0,28.58,ENE,67,0.0,0.0,54,0.00,,,0.00,Rainwise IP-100,2013-08-01 03:56:00,
2013-07-31 23:01:00,83.0,65.0,28.58,ENE,67,0.0,0.0,55,0.00,,,0.00,Rainwise IP-100,2013-08-01 04:01:00,
2013-07-31 23:06:00,82.6,65.0,28.58,ENE,67,0.0,0.0,55,0.00,,,0.00,Rainwise IP-100,2013-08-01 04:06:00,
2013-07-31 23:11:00,82.1,65.0,28.58,ENE,67,0.0,0.0,56,0.00,,,0.00,Rainwise IP-100,2013-08-01 04:11:00,
2013-07-31 23:16:00,81.5,65.0,28.58,ENE,67,0.0,0.0,57,0.00,,,0.00,Rainwise IP-100,2013-08-01 04:16:00,
2013-07-31 23:21:00,81.4,64.0,28.58,South,180,0.0,2.0,56,0.00,,,0.00,Rainwise IP-100,2013-08-01 04:21:00,
2013-07-31 23:26:00,81.8,64.0,28.58,South,180,0.0,0.0,55,0.00,,,0.00,Rainwise IP-100,2013-08-01 04:26:00,
2013-07-31 23:31:00,82.3,64.0,28.58,South,180,0.0,0.0,55,0.00,,,0.00,Rainwise IP-100,2013-08-01 04:31:00,
2013-07-31 23:36:00,82.6,64.0,28.58,South,180,0.0,1.0,54,0.00,,,0.00,Rainwise IP-100,2013-08-01 04:36:00,
2013-07-31 23:41:00,82.9,64.0,28.58,South,180,0.0,1.0,53,0.00,,,0.00,Rainwise IP-100,2013-08-01 04:41:00,
2013-07-31 23:46:00,83.2,64.0,28.58,South,180,0.0,0.0,52,0.00,,,0.00,Rainwise IP-100,2013-08-01 04:46:00,
2013-07-31 23:51:00,83.2,64.0,28.58,South,180,0.0,0.0,52,0.00,,,0.00,Rainwise IP-100,2013-08-01 04:51:00,
2013-07-31 23:56:00,83.3,64.0,28.58,South,180,0.0,0.0,52,0.00,,,0.00,Rainwise IP-100,2013-08-01 04:56:00,